Mt. Pocono, PA

9:16 AM EDT on April 28, 2017 (GMT -0400)
Pocono Mountains Municipal

Weather History for KMPO - December, 2013

Change the Weather History Date:

Wednesday, December 4, 2013

  Actual Average Record
Temperature  
Mean Temperature 38 °F 31 °F  
Max Temperature 48 °F 38 °F 66 °F (1941)
Min Temperature 27 °F 25 °F -9 °F (1940)
Degree Days  
Heating Degree Days 27 34  
Month to date heating degree days 118 132  
Since 1 July heating degree days 1730 1711  
Cooling Degree Days 0 0  
Month to date cooling degree days 0 0  
Year to date cooling degree days 467 314  
Moisture  
Dew Point 33 °F    
Average Humidity 77    
Maximum Humidity 92    
Minimum Humidity 61    
Precipitation  
Precipitation 0.00 in 0.14 in 3.65 in (1950)
Month to date precipitation T 0.54  
Year to date precipitation 41.58 45.45  
Sea Level Pressure  
Sea Level Pressure 30.06 in    
Wind  
Wind Speed 5 mph (SSE)    
Max Wind Speed 15 mph    
Max Gust Speed 20 mph    
Visibility 5 miles    
Events      
T = Trace of Precipitation, MM = Missing Value Source: NWS Daily Summary

Daily Weather History Graph

Daily Weather History Graph

Search for Another Location

Airport or City:

Trip Planner

Search our weather history database for the weather conditions in past years. The results will help you decide how hot, cold, wet, or windy it might be!

Date:

Astronomy

Dec. 04, 2013 Rise Set
Actual Time 7:10 AM EST 4:32 PM EST
Civil Twilight 6:39 AM EST 5:03 PM EST
Nautical Twilight 6:05 AM EST 5:38 PM EST
Astronomical Twilight 5:32 AM EST 6:11 PM EST
Moon 8:36 AM EST (12/4) 6:41 PM EST (12/4)
Length of Visible Light 10h 23m
Length of Day
9h 22m
Waxing Crescent, 4% of the Moon is Illuminated
Dec 4
Waxing Crescent
Dec 9
First Quarter
Dec 17
Full
Dec 25
Last Quarter
Jan 1
New

Hourly Weather History & Observations

Time (EST) Temp. Windchill Dew Point Humidity Pressure Visibility Wind Dir Wind Speed Gust Speed Precip Events Conditions
12:07 AM 27.0 °F 23.0 °F 24.1 °F 89% 29.96 in 3.0 mi NNW 3.5 mph - N/A   Clear
12:21 AM 27.0 °F 23.0 °F 25.0 °F 92% 29.96 in 2.5 mi NW 3.5 mph - N/A   Clear
12:53 AM 27.0 °F 23.0 °F 24.1 °F 89% 30.01 in 3.0 mi NW 3.5 mph - N/A   Clear
1:53 AM 30.0 °F - 27.0 °F 88% 30.02 in 3.0 mi Calm Calm - N/A   Clear
2:53 AM 30.0 °F 26.5 °F 28.0 °F 92% 30.03 in 2.5 mi NW 3.5 mph - N/A   Clear
3:48 AM 32.0 °F 27.5 °F 28.4 °F 87% 29.98 in 3.0 mi WNW 4.6 mph - N/A   Clear
3:53 AM 32.0 °F 26.4 °F 28.9 °F 88% 30.03 in 4.0 mi WNW 5.8 mph - N/A   Clear
4:53 AM 35.1 °F 29.3 °F 30.9 °F 85% 30.05 in 5.0 mi West 6.9 mph - N/A   Overcast
5:53 AM 35.1 °F 32.2 °F 32.0 °F 89% 30.06 in 5.0 mi West 3.5 mph - N/A   Scattered Clouds
6:53 AM 32.0 °F - 28.9 °F 88% 30.07 in 4.0 mi Calm Calm - N/A   Clear
7:23 AM 30.0 °F 26.5 °F 27.0 °F 88% 30.00 in 2.0 mi ENE 3.5 mph - N/A   Clear
7:53 AM 32.0 °F - 30.0 °F 92% 30.07 in 1.5 mi Calm Calm - N/A   Clear
8:53 AM 37.0 °F - 33.1 °F 86% 30.10 in 3.0 mi Calm Calm - N/A   Clear
9:53 AM 44.1 °F - 35.1 °F 71% 30.11 in 5.0 mi Calm Calm - N/A   Haze
10:53 AM 45.0 °F 40.6 °F 35.1 °F 68% 30.12 in 6.0 mi SSW 8.1 mph - N/A   Haze
11:01 AM 45.0 °F 40.6 °F 35.1 °F 68% 30.07 in 7.0 mi SSW 8.1 mph - N/A   Mostly Cloudy
11:53 AM 46.9 °F - 36.0 °F 66% 30.09 in 7.0 mi South 8.1 mph - N/A   Overcast
12:53 PM 48.0 °F - 36.0 °F 63% 30.07 in 9.0 mi SSW 9.2 mph - N/A   Overcast
1:53 PM 46.9 °F - 36.0 °F 66% 30.06 in 9.0 mi South 8.1 mph - N/A   Overcast
2:53 PM 46.9 °F - 37.0 °F 68% 30.07 in 9.0 mi SSE 5.8 mph - N/A   Overcast
3:53 PM 45.0 °F 43.5 °F 35.1 °F 68% 30.08 in 6.0 mi ESE 3.5 mph - N/A   Haze
4:53 PM 43.0 °F 38.8 °F 34.0 °F 71% 30.09 in 7.0 mi SE 6.9 mph - N/A   Overcast
5:08 PM 43.0 °F 39.5 °F 34.0 °F 71% 30.04 in 7.0 mi ESE 5.8 mph - N/A   Overcast
5:40 PM 43.0 °F 40.3 °F 34.0 °F 71% 30.06 in 7.0 mi SE 4.6 mph - N/A   Overcast
5:53 PM 42.1 °F 39.2 °F 34.0 °F 73% 30.10 in 7.0 mi ESE 4.6 mph - N/A   Overcast
6:22 PM 42.1 °F 39.2 °F 34.0 °F 73% 30.07 in 7.0 mi ESE 4.6 mph - N/A   Overcast
6:53 PM 43.0 °F 38.8 °F 35.1 °F 74% 30.12 in 6.0 mi SE 6.9 mph - N/A   Haze
7:53 PM 43.0 °F 38.8 °F 35.1 °F 74% 30.12 in 6.0 mi ESE 6.9 mph - N/A   Haze
8:53 PM 43.0 °F 40.3 °F 36.0 °F 76% 30.11 in 6.0 mi SE 4.6 mph - N/A   Haze
9:53 PM 42.1 °F 37.7 °F 36.0 °F 79% 30.10 in 6.0 mi SE 6.9 mph - N/A   Haze
10:38 PM 42.1 °F 36.6 °F 36.0 °F 79% 30.07 in 5.0 mi SE 9.2 mph - N/A   Haze
10:48 PM 42.8 °F 37.5 °F 37.4 °F 81% 30.07 in 5.0 mi SE 9.2 mph - N/A   Haze
10:53 PM 42.1 °F 36.6 °F 37.0 °F 82% 30.10 in 5.0 mi SE 9.2 mph - N/A   Haze
11:26 PM 42.1 °F 37.1 °F 37.0 °F 82% 30.07 in 5.0 mi SE 8.1 mph - N/A   Haze
11:53 PM 42.1 °F 37.7 °F 37.0 °F 82% 30.09 in 5.0 mi SE 6.9 mph - N/A   Haze